Weather History for KGCK - May, 2013

Change the Weather History Date:

Thursday, May 16, 2013

  Actual Average Record
Temperature  
Mean Temperature 71 °F 63 °F  
Max Temperature 86 °F 77 °F 104 °F (1996)
Min Temperature 56 °F 50 °F 34 °F (1983)
Degree Days  
Heating Degree Days 0 4  
Month to date heating degree days 131 90  
Since 1 July heating degree days 5185 5152  
Cooling Degree Days 6 2  
Month to date cooling degree days 34 24  
Year to date cooling degree days 38 36  
Growing Degree Days 20 (Base 50)    
Moisture  
Dew Point 55 °F    
Average Humidity 64    
Maximum Humidity 100    
Minimum Humidity 27    
Precipitation  
Precipitation 0.00 in 0.10 in 0.79 in (2003)
Month to date precipitation 0.54 1.33  
Year to date precipitation 1.42 5.39  
Sea Level Pressure  
Sea Level Pressure 29.82 in    
Wind  
Wind Speed 11 mph (SSE)    
Max Wind Speed 21 mph    
Max Gust Speed 26 mph    
Visibility 6 miles    
Events Fog    
T = Trace of Precipitation, MM = Missing Value Source: NWS Daily Summary

Daily Weather History Graph

Daily Weather History Graph

Search for Another Location

Airport or City:

Trip Planner

Search our weather history database for the weather conditions in past years. The results will help you decide how hot, cold, wet, or windy it might be!

Date:

Astronomy

May. 16, 2013 Rise Set
Actual Time 6:31 AM CDT 8:47 PM CDT
Civil Twilight 6:02 AM CDT 9:17 PM CDT
Nautical Twilight 5:25 AM CDT 9:53 PM CDT
Astronomical Twilight 4:46 AM CDT 10:33 PM CDT
Moon 12:04 PM CDT (5/16) 1:10 AM CDT (5/16)
Length of Visible Light 15h 15m
Length of Day
14h 15m
Waxing Crescent, 36% of the Moon is Illuminated
May 16
Waxing Crescent
May 17
First Quarter
May 24
Full
May 31
Last Quarter
Jun 8
New

Hourly Weather History & Observations

Time (CDT) Temp. Dew Point Humidity Pressure Visibility Wind Dir Wind Speed Gust Speed Precip Events Conditions
12:54 AM 60.1 °F 54.0 °F 80% 29.76 in 10.0 mi SE 8.1 mph - N/A   Clear
1:54 AM 57.9 °F 54.0 °F 87% 29.77 in 10.0 mi SSE 5.8 mph - N/A   Partly Cloudy
2:54 AM 57.9 °F 55.9 °F 93% 29.78 in 7.0 mi South 5.8 mph - N/A   Mostly Cloudy
3:20 AM 57.2 °F 57.2 °F 100% 29.88 in 1.8 mi Calm Calm - N/A   Overcast
3:43 AM 57.2 °F 57.2 °F 100% 29.88 in 0.5 mi WNW 5.8 mph - N/A Fog Fog
3:54 AM 57.9 °F 57.0 °F 97% 29.78 in 1.0 mi NW 4.6 mph - N/A   Mist
4:10 AM 57.2 °F 57.2 °F 100% 29.87 in 0.5 mi NNE 3.5 mph - N/A Fog Fog
4:54 AM 57.9 °F 57.9 °F 100% 29.78 in 0.2 mi ESE 3.5 mph - N/A Fog Fog
5:50 AM 57.2 °F 57.2 °F 100% 29.87 in 0.2 mi South 5.8 mph - N/A Fog Fog
5:54 AM 57.9 °F 57.9 °F 100% 29.78 in 0.2 mi SSW 6.9 mph - N/A Fog Fog
6:41 AM 57.2 °F 57.2 °F 100% 29.87 in 0.2 mi South 10.4 mph - N/A Fog Fog
6:54 AM 59.0 °F 59.0 °F 100% 29.78 in 0.2 mi SSE 6.9 mph - N/A Fog Fog
7:54 AM 55.9 °F 55.9 °F 100% 29.82 in 0.2 mi SSE 12.7 mph - N/A Fog Fog
8:21 AM 55.4 °F 55.4 °F 100% 29.90 in 0.5 mi South 10.4 mph - N/A Fog Fog
8:47 AM 57.2 °F 57.2 °F 100% 29.90 in 1.2 mi South 12.7 mph - N/A   Overcast
8:54 AM 57.9 °F 57.0 °F 97% 29.83 in 1.2 mi South 11.5 mph - N/A   Overcast
9:04 AM 57.2 °F 57.2 °F 100% 29.91 in 2.5 mi South 11.5 mph - N/A   Overcast
9:12 AM 57.2 °F 57.2 °F 100% 29.91 in 3.0 mi South 10.4 mph - N/A   Overcast
9:54 AM 60.1 °F 57.0 °F 90% 29.85 in 8.0 mi South 11.5 mph - N/A   Overcast
10:13 AM 62.6 °F 57.2 °F 82% 29.91 in 9.0 mi South 11.5 mph - N/A   Overcast
10:45 AM 64.4 °F 57.2 °F 77% 29.90 in 10.0 mi Variable 5.8 mph - N/A   Mostly Cloudy
10:52 AM 64.4 °F 57.2 °F 77% 29.90 in 10.0 mi SSW 9.2 mph - N/A   Partly Cloudy
10:54 AM 64.9 °F 57.0 °F 75% 29.83 in 10.0 mi SW 5.8 mph - N/A   Partly Cloudy
11:54 AM 71.1 °F 55.9 °F 59% 29.82 in 10.0 mi SW 6.9 mph - N/A   Clear
12:54 PM 75.0 °F 55.0 °F 50% 29.80 in 10.0 mi Variable 4.6 mph - N/A   Clear
1:54 PM 78.8 °F 53.6 °F 42% 29.85 in 10.0 mi SSE 10.4 mph 17.3 mph N/A   Clear
2:54 PM 82.9 °F 52.0 °F 34% 29.74 in 10.0 mi SE 10.4 mph 17.3 mph N/A   Clear
3:54 PM 84.0 °F 48.9 °F 29% 29.71 in 10.0 mi SSE 13.8 mph 23.0 mph N/A   Clear
4:54 PM 84.2 °F 46.4 °F 27% 29.78 in 10.0 mi SSE 17.3 mph 21.9 mph N/A   Clear
5:54 PM 84.0 °F 46.0 °F 26% 29.68 in 10.0 mi SSE 15.0 mph 24.2 mph N/A   Clear
6:54 PM 82.0 °F 48.0 °F 30% 29.68 in 10.0 mi SSE 15.0 mph 21.9 mph N/A   Clear
7:54 PM 79.0 °F 48.9 °F 35% 29.70 in 10.0 mi SE 17.3 mph - N/A   Clear
8:54 PM 73.9 °F 53.1 °F 48% 29.71 in 10.0 mi SE 17.3 mph - N/A   Clear
9:54 PM 70.0 °F 57.0 °F 63% 29.78 in 10.0 mi East 15.0 mph - N/A   Clear
10:05 PM 69.8 °F 57.2 °F 64% 29.87 in 10.0 mi NE 18.4 mph - N/A   Scattered Clouds
10:54 PM 68.0 °F 57.0 °F 68% 29.83 in 10.0 mi East 13.8 mph - N/A   Partly Cloudy
11:54 PM 64.9 °F 57.0 °F 75% 29.81 in 10.0 mi ESE 16.1 mph - N/A   Clear